Overview Statistics Trail Chart Weather Telemetry Raw packets
 

This is the latest recevied weather packets stored in our database for station/object YREN. If no packets are shown the sender has not sent any weather packets the latest 10 day(s).

<< 1 2 3 4 5 6 >>
Time Temp. Humidity Pressure Rain* Wind** Luminosity Snow
1788564904 17.22° C 55% 1012.2 hPa 0 mm - - -
1788564004 17.22° C 56% 1011.8 hPa 0 mm - - -
1788563827 17.22° C 56% 1011.8 hPa 0 mm - - -
1788563104 17.22° C 56% 1011.8 hPa 0 mm - - -
1788562204 16.11° C 60% 1011.5 hPa 0 mm - - -
1788561304 16.11° C 60% 1011.5 hPa 0 mm - - -
1788560404 16.11° C 60% 1011.3 hPa 0 mm - - -
1788559504 16.11° C 60% 1011.3 hPa 0 mm - - -
1788558603 15° C 72% 1011.1 hPa 0 mm - - -
1788557704 15° C 72% 1011.1 hPa 0 mm - - -
1788556804 14.44° C 82% 1010.4 hPa 0 mm - - -
1788555904 14.44° C 82% 1010.4 hPa 0 mm - - -
1788555004 14.44° C 83% 1010.4 hPa 0 mm - - -
1788554104 14.44° C 83% 1010.4 hPa 0 mm - - -
1788553204 14.44° C 84% 1010.2 hPa 0 mm - - -
1788552304 14.44° C 84% 1010.2 hPa 0 mm - - -
1788551404 14.44° C 84% 1010.1 hPa 0 mm - - -
1788550504 14.44° C 84% 1010.1 hPa 0 mm - - -
1788549604 14.44° C 82% 1009.9 hPa 0 mm - - -
1788548703 14.44° C 82% 1009.9 hPa 0 mm - - -
1788547804 14.44° C 83% 1009.6 hPa 0.51 mm - - -
1788546904 14.44° C 83% 1009.6 hPa 0.51 mm - - -
1788546003 14.44° C 84% 1009.7 hPa 0.51 mm - - -
1788545104 14.44° C 84% 1009.7 hPa 0.51 mm - - -
1788544204 15.56° C 75% 1009.6 hPa 0 mm - - -

* Rain latest hour (hover to see other rain measurements)
** Current wind speed in m/s (hover to see current wind gust speed)